Location: �perlecques
(50.8057°N, 2.1521°E)
Time: 03:22:41
(UTC+00:00)

Cosmos 2228 - Pass Details

Date: 09 April 2020
Orbit: 588 x 619 km, 82.5° (Epoch: 26 May)

Event Time Altitude Azimuth Distance (km) Brightness Sun altitude
Rises 19:07:16 0° 178° (S) 2,840 6.2 -5.3°
Reaches altitude 10° 19:09:29 10° 174° (S) 1,947 5.4 -5.6°
Maximum altitude 19:13:43 59° 96° (E) 708 3.1 -6.3°
Drops below altitude 10° 19:18:01 10° 17° (NNE) 1,982 5.7 -6.9°
Sets 19:20:17 0° 14° (NNE) 2,896 6.6 -7.2°
